Nebraska City, NE

10:10 PM CDT on August 24, 2016 (GMT -0500)
Nebraska City Municipal

Weather History for KAFK - October, 2012

Change the Weather History Date:

Friday, October 12, 2012

  Actual Average (KSDA) Record (KSDA)
Temperature  
Mean Temperature 46 °F -  
Max Temperature 55 °F 69 °F 93 °F (1999)
Min Temperature 37 °F 44 °F 22 °F (1980)
Degree Days  
Heating Degree Days 19    
Moisture  
Dew Point 28 °F    
Average Humidity 47    
Maximum Humidity 67    
Minimum Humidity 38    
Precipitation  
Precipitation 0.00 in - - ()
Sea Level Pressure  
Sea Level Pressure 30.26 in    
Wind  
Wind Speed 13 mph (ESE)    
Max Wind Speed 18 mph    
Max Gust Speed 24 mph    
Visibility 10 miles    
Events      
Averages and records for this station are not official NWS values.
T = Trace of Precipitation, MM = Missing Value Source: NWS Daily Summary

Daily Weather History Graph

Daily Weather History Graph

Search for Another Location

Airport or City:

Trip Planner

Search our weather history database for the weather conditions in past years. The results will help you decide how hot, cold, wet, or windy it might be!

Date:

Astronomy

Oct. 12, 2012 Rise Set
Actual Time 7:31 AM CDT 6:47 PM CDT
Civil Twilight 7:04 AM CDT 7:14 PM CDT
Nautical Twilight 6:32 AM CDT 7:46 PM CDT
Astronomical Twilight 6:01 AM CDT 8:17 PM CDT
Moon 4:15 AM CDT (10/12) 4:58 PM CDT (10/12)
Length of Visible Light 12h 10m
Length of Day
11h 15m
Waning Crescent, 10% of the Moon is Illuminated
Oct 12
Waning Crescent
Oct 15
New
Oct 21
First Quarter
Oct 29
Full
Nov 6
Last Quarter

Hourly Weather History & Observations

Time (CDT) Temp. Windchill Dew Point Humidity Pressure Visibility Wind Dir Wind Speed Gust Speed Precip Events Conditions
12:15 AM 48.2 °F - 28.9 °F 47% 30.32 in 10.0 mi NE 17.3 mph 23.0 mph N/A   Overcast
12:35 AM 47.7 °F - 28.4 °F 47% 30.33 in 10.0 mi NE 17.3 mph 24.2 mph N/A   Overcast
12:55 AM 47.3 °F - 27.9 °F 47% 30.33 in 10.0 mi NE 18.4 mph 21.9 mph N/A   Overcast
1:15 AM 47.1 °F - 27.3 °F 46% 30.32 in 10.0 mi NE 16.1 mph 21.9 mph N/A   Overcast
1:35 AM 46.8 °F - 26.6 °F 45% 30.32 in 10.0 mi NE 16.1 mph 19.6 mph N/A   Overcast
1:55 AM 46.6 °F - 26.2 °F 45% 30.33 in 10.0 mi NE 15.0 mph - N/A   Overcast
2:15 AM 46.4 °F 40.1 °F 26.2 °F 45% 30.33 in 10.0 mi NE 15.0 mph - N/A   Overcast
2:35 AM 46.4 °F 40.1 °F 25.9 °F 45% 30.33 in 10.0 mi NE 15.0 mph - N/A   Overcast
3:15 AM 45.9 °F 39.4 °F 23.9 °F 42% 30.32 in 10.0 mi NE 15.0 mph 20.7 mph N/A   Overcast
3:35 AM 45.3 °F 39.3 °F 23.0 °F 41% 30.32 in 10.0 mi NE 12.7 mph - N/A   Mostly Cloudy
3:55 AM 44.2 °F 38.8 °F 22.8 °F 43% 30.31 in 10.0 mi ENE 10.4 mph - N/A   Clear
4:15 AM 43.3 °F 38.1 °F 22.5 °F 44% 30.31 in 10.0 mi ENE 9.2 mph - N/A   Clear
4:35 AM 43.0 °F 40.3 °F 22.1 °F 44% 30.31 in 10.0 mi NE 4.6 mph - N/A   Clear
4:55 AM 41.7 °F 36.7 °F 22.6 °F 47% 30.31 in 10.0 mi NE 8.1 mph - N/A   Clear
5:15 AM 40.5 °F 37.3 °F 22.8 °F 49% 30.31 in 10.0 mi ENE 4.6 mph - N/A   Clear
5:55 AM 40.6 °F 34.8 °F 21.9 °F 47% 30.31 in 10.0 mi NE 9.2 mph - N/A   Clear
6:15 AM 40.5 °F 34.6 °F 21.9 °F 48% 30.31 in 10.0 mi NE 9.2 mph - N/A   Clear
6:35 AM 40.1 °F - 21.7 °F 48% 30.32 in 10.0 mi Calm Calm - N/A   Clear
6:55 AM 38.7 °F 32.9 °F 21.9 °F 51% 30.32 in 10.0 mi NE 8.1 mph - N/A   Clear
7:15 AM 37.9 °F 32.1 °F 21.9 °F 53% 30.33 in 10.0 mi ENE 8.1 mph - N/A   Clear
7:35 AM 39.0 °F 33.4 °F 22.1 °F 51% 30.34 in 10.0 mi ENE 8.1 mph - N/A   Clear
7:55 AM 39.7 °F 33.7 °F 22.1 °F 49% 30.34 in 10.0 mi ENE 9.2 mph - N/A   Clear
8:15 AM 40.5 °F 34.6 °F 22.6 °F 49% 30.34 in 10.0 mi ENE 9.2 mph - N/A   Clear
8:35 AM 42.1 °F 34.9 °F 22.8 °F 46% 30.34 in 10.0 mi East 13.8 mph 18.4 mph N/A   Mostly Cloudy
9:15 AM 43.3 °F 36.5 °F 23.0 °F 45% 30.33 in 10.0 mi East 13.8 mph 20.7 mph N/A   Clear
9:35 AM 45.1 °F 38.4 °F 23.5 °F 43% 30.32 in 10.0 mi East 15.0 mph - N/A   Clear
9:55 AM 46.9 °F - 23.7 °F 40% 30.32 in 10.0 mi ESE 13.8 mph - N/A   Clear
10:15 AM 48.7 °F - 24.4 °F 39% 30.33 in 10.0 mi ESE 12.7 mph 19.6 mph N/A   Scattered Clouds
10:35 AM 48.2 °F - 24.6 °F 40% 30.33 in 10.0 mi ESE 8.1 mph 17.3 mph N/A   Mostly Cloudy
11:15 AM 51.1 °F - 26.4 °F 38% 30.32 in 10.0 mi ESE 10.4 mph 17.3 mph N/A   Overcast
11:35 AM 50.9 °F - 26.6 °F 39% 30.31 in 10.0 mi ESE 12.7 mph 17.3 mph N/A   Overcast
11:55 AM 52.7 °F - 27.9 °F 38% 30.29 in 10.0 mi ESE 10.4 mph 19.6 mph N/A   Overcast
12:15 PM 53.1 °F - 27.9 °F 38% 30.29 in 10.0 mi SE 13.8 mph 18.4 mph N/A   Overcast
12:35 PM 52.3 °F - 28.0 °F 39% 30.30 in 10.0 mi SE 13.8 mph 18.4 mph N/A   Overcast
12:55 PM 52.3 °F - 28.4 °F 40% 30.29 in 10.0 mi SE 13.8 mph 19.6 mph N/A   Overcast
1:35 PM 52.7 °F - 28.9 °F 40% 30.26 in 10.0 mi SSE 11.5 mph 18.4 mph N/A   Overcast
1:55 PM 54.0 °F - 29.7 °F 39% 30.25 in 10.0 mi SE 12.7 mph - N/A   Overcast
2:15 PM 54.7 °F - 30.0 °F 39% 30.23 in 10.0 mi SE 12.7 mph 17.3 mph N/A   Overcast
2:35 PM 54.1 °F - 30.2 °F 40% 30.21 in 10.0 mi SE 9.2 mph - N/A   Overcast
2:55 PM 54.5 °F - 30.2 °F 39% 30.20 in 10.0 mi ESE 8.1 mph - N/A   Overcast
3:15 PM 54.7 °F - 30.7 °F 40% 30.19 in 10.0 mi SE 8.1 mph - N/A   Overcast
3:35 PM 54.9 °F - 31.1 °F 40% 30.18 in 10.0 mi ESE 9.2 mph - N/A   Overcast
3:55 PM 55.8 °F - 32.0 °F 41% 30.16 in 10.0 mi ESE 10.4 mph - N/A   Overcast
4:15 PM 55.8 °F - 32.0 °F 41% 30.16 in 10.0 mi SSE 10.4 mph - N/A   Overcast
4:35 PM 55.6 °F - 33.4 °F 43% 30.15 in 10.0 mi SE 12.7 mph - N/A   Overcast
4:55 PM 55.4 °F - 35.4 °F 47% 30.16 in 10.0 mi SSE 11.5 mph - N/A   Overcast
5:15 PM 55.2 °F - 37.4 °F 51% 30.16 in 10.0 mi SSE 11.5 mph 16.1 mph N/A   Overcast
5:55 PM 53.6 °F - 41.2 °F 63% 30.15 in 10.0 mi South 12.7 mph - N/A   Overcast
6:15 PM 53.6 °F - 41.0 °F 62% 30.15 in 10.0 mi South 11.5 mph - N/A   Overcast
6:35 PM 53.1 °F - 39.7 °F 61% 30.13 in 10.0 mi South 10.4 mph - N/A   Overcast
6:55 PM 52.9 °F - 39.4 °F 60% 30.12 in 10.0 mi SSE 6.9 mph - N/A   Overcast
7:15 PM 52.7 °F - 39.6 °F 61% 30.12 in 10.0 mi SSE 5.8 mph - N/A   Overcast
7:35 PM 52.7 °F - 40.1 °F 62% 30.13 in 10.0 mi South 9.2 mph - N/A   Overcast
7:55 PM 52.3 °F - 40.6 °F 64% 30.12 in 10.0 mi South 9.2 mph - N/A   Overcast
8:15 PM 52.2 °F - 41.4 °F 67% 30.10 in 10.0 mi SSE 9.2 mph - N/A   Overcast